Terminal Aerodrome Forecast
Issued by NWS Louisville, KY

Home | Current Version | Previous Version | Text Only | Print | Product List | Glossary On
Versions: 1 2 3 4 5 6 7 8 9 10 11 12 13 14 15 16 17 18 19 20 21
000
FTUS43 KLMK 211100
TAFSDF
TAF
KSDF 211120Z 2112/2218 27011KT P6SM VCSH BKN040
     FM211500 29014G18KT P6SM BKN050
     FM220100 33007KT P6SM BKN250=

USA.gov is the U.S. government's official web portal to all federal, state and local government web resources and services.